Regional Weather Roundup
Issued by NWS

Home | Current Version | Previous Version | Text Only | Print | Product List | Glossary On
Versions: 1 2 3 4 5 6 7 8 9 10 11 12 13 14 15 16 17 18 19 20 21 22 23 24 25 26 27
000
ASUS46 KPQR 202310
RWROR

OREGON REGIONAL WEATHER ROUNDUP
NATIONAL WEATHER SERVICE PORTLAND OR
300 PM PST MON FEB 20 2017

NOTE: "FAIR" INDICATES FEW OR NO CLOUDS BELOW 12,000 FEET WITH
NO SIGNIFICANT WEATHER AND/OR OBSTRUCTIONS TO VISIBILITY.

ORZ001>013-210000-
NORTHWEST OREGON


CITY           SKY/WX    TMP DP  RH WIND       PRES   REMARKS
ASTORIA        LGT RAIN  47  43  86 S8        29.67R
NEWPORT        RAIN      46  45  93 SW12G20   29.73R
PORTLAND       LGT RAIN  49  43  80 SE6       29.71R
VANCOUVER WA   CLOUDY    50  44  80 CALM      29.70R
SCAPPOOSE      LGT RAIN  47  45  93 SE6       29.70R FOG
HILLSBORO      LGT RAIN  49  43  80 S8        29.69R
AURORA         CLOUDY    51  43  74 S12       29.71R
MCMINNVILLE    CLOUDY    51  43  74 S13       29.70R
SALEM          LGT RAIN  50  44  80 S8        29.70R
CORVALLIS        N/A     52  45  76 S9        29.70S
EUGENE         CLOUDY    52  44  74 SW3       29.72S
$$

ORZ021-028-210000-
SOUTHWEST OREGON


CITY           SKY/WX    TMP DP  RH WIND       PRES   REMARKS
NORTH BEND     CLOUDY    52  46  82 SW6       29.72S
BROOKINGS      LGT RAIN  49  48  97 VRB5      29.70F
ROSEBURG       LGT RAIN  54  43  66 NE5       29.69S
SEXTON SUMMIT  CLOUDY    40  36  86 S14G24    29.64F WCI  32
MEDFORD        CLOUDY    60  40  47 VRB3      29.65F
$$

ORZ014>016-041-210000-
COLUMBIA GORGE


CITY           SKY/WX    TMP DP  RH WIND       PRES   REMARKS
TROUTDALE      CLOUDY    48  44  86 E7        29.72R
THE DALLES     SUNNY     51  40  65 NW23G30   29.65R
$$

ORZ029>031-041-044-049-050-061>064-502-503-505>511-210000-
EASTERN OREGON


CITY           SKY/WX    TMP DP  RH WIND       PRES   REMARKS
REDMOND        SUNNY     53  31  42 SW18G26   29.64R
BEND           MOSUNNY   50  30  46 SW13G20   29.65R
PRINEVILLE     MOSUNNY   50  34  53 SW17G24   29.65R
KLAMATH FALLS  CLOUDY    48  31  51 S8        29.68F
LAKEVIEW       CLOUDY    37  34  87 S15       29.78R WCI  28
HERMISTON      SUNNY     52  41  66 W21G28    29.62R
PENDLETON        N/A    N/A N/A N/A MISG      29.61R
JOHN DAY       CLOUDY    55  28  35 NW18G28   29.66S
MEACHAM        CLOUDY    48  29  47 VRB7G18   29.62R
LA GRANDE      PTSUNNY   61  30  31 SW16G25   29.60S
BAKER CITY     PTSUNNY   54  33  45 S17       29.64S
BURNS          MOSUNNY   40  30  67 SW9       29.73R WCI  34
ROME             N/A     53  35  50 S21G29    29.75F
ONTARIO        CLOUDY    42  35  76 CALM      29.74S
$$




USA.gov is the U.S. government's official web portal to all federal, state and local government web resources and services.